User: anonymous   Login
Location: Unspecified
(35.7250°N, 0.0000°E)
Time: 02:55:24
(UTC+00:00)
Language:

Vanguard 3 - Orbit

View from above orbital plane
View from above orbital plane
View from above satellite
View from above satellite

Ground track
Ground track

The orbit data is extracted from the following two-line orbital elements,

1    20U 59007A   19170.03657184  .00000220  00000-0  90654-4 0  9997
2    20  33.3452  40.2695 1666927 133.6830 241.4569 11.55651089188471
Epoch (UTC): 19 June 2019 00:52:39
Eccentricity: 0.1666927
inclination: 33.3452°
perigee height: 508 km
apogee height: 3263 km
right ascension of ascending node: 40.2695°
argument of perigee: 133.6830°
revolutions per day: 11.55651089
mean anomaly at epoch: 241.4569°
orbit number at epoch: 18847

The dashed part of the orbit path shows where the satellite is in the earth's shadow,  

DLR